RH
50 53 54 54 56 55 55 56 57 57 57 56 55 56 61 66 65 63 64 63 62 65 66 65 66 67 69 71 69 66 65 64 64 65 66 67 67 68 69 70 69 67 67 67 65 63 61 60 58 57 55 51 46 42 38 35 33 31 29 28 27 22 15 13 13 14 15 17 19 21 20 21 22 18 18 17 15 15 18 17 15 15 16 16 18 19
49 52 50 50 53 54 56 58 58 56 55 55 56 60 65 67 66 63 63 64 62 63 63 61 63 65 67 68 65 63 64 64 65 65 66 66 67 68 69 69 67 67 67 66 64 62 60 58 57 54 49 44 41 38 36 34 32 30 29 26 23 17 13 14 16 16 15 18 20 20 19 20 21 17 17 16 14 15 17 15 14 15 16 18 20 20
51 51 50 51 51 53 56 59 59 57 56 57 58 62 66 66 65 65 63 62 62 64 65 64 66 68 68 68 65 62 63 64 65 65 66 66 67 67 66 65 64 63 62 60 59 58 55 54 52 48 44 42 40 38 36 34 30 29 28 24 19 16 15 14 14 15 15 17 19 20 19 19 19 18 17 14 13 13 13 13 14 15 17 20 21 21
51 50 50 51 51 54 57 58 59 58 58 60 61 62 64 65 65 66 65 64 63 65 65 65 66 69 69 68 65 63 61 61 63 64 64 63 64 65 64 62 59 58 58 57 56 54 51 49 48 47 46 44 42 38 33 30 28 28 26 21 18 16 15 14 12 11 11 12 16 18 17 16 16 15 12 9 8 11 12 14 17 16 19 22 22 22
48 48 49 48 50 54 57 57 60 62 61 63 66 65 64 67 68 67 68 68 67 66 65 66 69 71 72 71 67 63 62 62 62 62 62 61 61 61 59 58 58 58 57 55 52 50 48 48 48 48 45 41 38 34 31 29 28 27 24 21 20 18 17 16 13 10 8 7 10 12 11 10 10 9 9 9 11 15 17 19 20 18 20 22 22 22
46 46 46 47 49 52 54 57 59 60 61 63 68 69 67 69 70 69 70 72 75 74 66 67 73 75 74 73 71 67 64 64 63 61 60 59 58 58 57 58 59 58 56 54 51 49 49 49 48 45 40 36 33 31 30 29 28 26 23 21 21 21 21 19 14 9 7 7 8 9 9 9 11 12 14 16 18 19 19 21 21 18 19 22 22 22
46 46 46 47 48 49 51 56 58 57 62 65 67 68 68 69 69 68 68 71 76 75 66 65 71 75 76 73 69 68 66 65 64 62 60 59 58 58 58 59 59 58 56 53 51 51 51 50 47 41 38 35 31 30 30 29 27 24 20 18 19 21 23 21 14 9 8 9 11 13 14 16 16 19 19 19 20 20 19 20 21 19 19 21 22 21
43 45 47 48 47 48 51 54 56 57 63 67 66 68 70 70 68 66 67 70 72 71 70 69 68 73 77 71 67 66 65 64 63 61 59 58 58 58 59 60 59 56 54 54 54 54 52 49 45 40 39 35 31 29 29 28 26 23 20 20 18 18 20 17 12 9 9 11 14 15 16 16 17 20 19 19 21 21 20 20 20 20 19 20 20 20
40 43 46 47 45 46 49 51 52 56 62 65 66 67 67 67 67 66 67 69 72 72 74 71 68 74 76 68 65 66 64 62 62 60 57 56 57 57 57 57 56 54 54 56 56 54 51 47 43 41 39 36 31 29 29 27 24 22 22 23 19 14 15 14 10 9 9 11 13 14 14 13 13 16 15 16 19 20 20 19 17 19 19 19 19 19
38 40 42 43 43 44 46 48 50 53 57 61 64 65 65 65 67 71 72 69 73 75 72 67 66 72 73 66 65 66 64 62 60 58 57 57 58 57 55 53 54 55 55 57 55 51 49 47 44 41 38 35 31 28 29 26 22 21 23 23 17 12 15 15 11 9 8 10 11 13 15 13 11 13 12 13 16 17 19 17 17 20 20 20 20 20
35 37 39 38 40 43 45 48 51 51 52 57 64 67 69 70 70 75 76 71 72 74 69 64 63 67 69 65 63 63 60 59 59 58 58 58 58 57 55 53 53 55 56 55 52 50 50 48 45 41 36 31 29 28 28 24 20 22 23 21 17 14 14 13 10 10 9 9 12 14 15 14 12 13 14 13 15 18 19 19 20 21 22 21 21 20
33 36 38 36 36 40 45 49 51 51 52 56 63 67 69 70 69 72 74 71 72 75 68 62 62 65 66 62 58 57 56 57 58 57 57 56 57 57 54 52 53 55 56 54 53 52 51 48 44 39 33 29 27 25 23 21 20 21 22 20 18 15 12 11 10 10 9 9 11 13 13 14 13 13 15 16 16 20 21 21 22 22 22 21 21 21
33 34 36 37 36 38 42 48 52 53 54 56 60 64 68 71 68 69 73 71 72 74 66 62 63 64 63 59 54 54 54 55 57 58 57 55 54 54 52 52 53 54 55 54 53 52 50 46 41 36 29 25 23 22 21 21 20 19 19 18 17 15 12 11 11 12 11 11 11 13 13 14 13 12 14 16 16 20 21 21 23 23 22 22 21 22
34 35 37 38 38 37 39 46 52 53 55 56 57 59 65 72 71 69 71 69 70 71 66 65 66 63 60 57 52 51 52 53 56 59 58 55 52 51 50 51 52 52 54 55 54 52 49 44 39 34 28 24 23 23 23 23 20 18 17 17 16 15 13 12 13 16 16 14 13 14 14 15 15 12 12 14 16 19 20 21 23 22 22 23 23 25
36 38 38 36 34 35 37 43 47 48 50 53 53 53 57 65 67 65 68 69 70 70 68 66 66 64 63 57 50 51 51 52 56 58 58 56 52 50 49 51 52 53 55 55 54 53 50 45 40 37 32 26 25 25 24 23 20 17 16 16 16 16 15 13 15 18 18 15 15 15 16 18 16 12 12 13 15 17 18 20 21 21 21 23 26 27
34 37 36 33 31 32 36 41 42 43 48 51 51 51 50 54 59 60 64 68 68 69 70 69 66 64 63 56 50 52 53 52 55 57 57 56 53 51 52 53 55 55 55 54 54 54 51 44 40 38 33 27 26 26 23 21 19 17 16 16 16 17 17 16 16 18 17 16 16 16 19 20 16 12 11 12 13 15 17 19 19 20 21 24 27 27
34 36 34 31 32 31 33 38 38 39 45 50 50 49 46 45 51 58 62 65 68 70 71 71 68 66 63 58 52 52 54 53 55 56 55 55 55 55 57 58 56 56 55 52 52 53 49 43 40 38 33 27 25 24 21 18 18 17 16 16 17 17 17 17 17 16 15 16 18 19 20 19 13 11 11 11 12 13 14 16 16 19 21 24 27 27
39 39 34 32 33 32 32 35 36 35 38 45 48 46 45 44 45 53 60 62 67 72 72 71 70 68 66 63 57 53 53 54 54 55 55 56 57 57 59 59 57 56 54 51 49 48 45 41 39 37 32 25 23 22 19 17 17 17 16 16 18 18 17 19 17 14 16 19 20 19 18 16 13 13 12 11 12 11 12 14 18 22 24 26 26 26
40 39 36 36 34 31 32 33 36 35 34 40 44 41 44 47 44 47 54 59 63 69 71 69 69 68 64 61 57 54 53 53 53 54 56 57 57 56 55 57 56 55 52 48 45 43 41 40 38 36 30 23 21 21 19 17 16 17 17 16 17 19 18 18 16 14 18 20 20 19 17 16 16 15 12 11 11 10 13 18 23 27 28 27 27 26
41 40 39 38 34 31 33 34 36 38 36 36 38 38 42 48 46 45 49 52 58 67 70 69 69 67 60 56 53 51 51 52 52 53 55 56 55 53 52 53 54 52 49 45 41 39 39 40 37 34 29 23 21 21 20 18 16 16 17 16 16 19 19 17 15 16 19 20 20 20 18 16 15 12 10 10 11 13 17 23 26 28 29 28 27 27
40 41 41 39 36 33 36 37 36 38 39 36 36 38 41 44 43 45 47 48 54 64 70 71 72 66 57 53 51 50 50 49 49 50 52 54 55 54 54 53 51 48 46 44 40 37 38 38 36 33 31 25 21 21 19 17 16 16 18 17 16 19 19 18 17 17 19 20 19 18 16 14 12 10 9 10 12 16 21 25 26 27 28 27 27 26
39 42 45 43 38 35 38 39 36 36 38 39 41 44 44 44 44 47 50 50 52 58 62 66 68 61 55 52 50 50 49 47 47 49 50 52 55 55 55 53 50 47 46 44 39 36 37 38 34 33 33 26 20 20 19 17 17 16 17 17 17 19 20 19 19 17 18 19 18 17 15 12 10 9 9 11 15 20 24 26 27 27 28 28 27 26
38 47 49 44 40 37 37 37 35 36 38 40 44 46 46 43 44 48 51 50 50 51 52 57 60 57 53 52 50 49 49 47 49 50 50 52 55 55 55 54 52 50 47 42 38 37 39 39 35 34 33 26 20 20 19 17 17 17 18 18 18 19 20 21 20 17 18 19 17 15 13 11 10 10 10 14 18 22 25 27 29 29 30 30 28 26
37 45 46 45 46 43 37 36 37 39 42 43 42 43 43 40 42 48 51 50 47 46 48 53 56 56 54 52 51 50 49 49 50 50 52 54 56 55 55 54 53 51 47 42 40 40 40 38 34 33 33 27 20 20 18 17 18 18 18 18 18 19 21 21 20 17 18 18 16 14 13 11 11 11 13 17 20 23 26 28 29 29 30 29 28 27
34 41 45 47 49 47 41 40 41 41 45 47 43 39 37 37 42 45 46 48 47 44 46 51 56 57 55 53 52 50 48 49 51 52 54 56 57 56 54 54 53 52 47 42 40 39 38 36 33 32 33 27 20 20 18 17 19 18 19 19 18 20 22 21 18 17 17 17 14 14 13 12 12 12 15 19 22 24 26 28 29 29 29 30 29 28
38 43 48 48 48 49 47 45 45 44 46 47 42 38 36 38 44 46 45 49 49 45 45 48 51 52 51 52 52 49 47 49 51 54 56 57 56 55 53 54 53 52 48 42 38 37 36 35 33 34 34 26 20 20 19 17 19 19 19 19 19 20 22 21 17 16 17 16 15 14 14 13 14 14 16 20 23 25 27 27 28 28 29 30 30 28
45 46 48 49 48 48 50 50 48 45 44 43 38 35 35 40 47 49 47 48 47 44 43 44 44 45 47 49 48 46 46 47 50 55 56 56 55 54 54 54 54 54 51 44 39 37 37 35 33 35 33 25 21 21 19 18 20 20 20 21 20 21 22 21 17 15 17 17 16 16 15 15 16 16 18 21 24 26 27 27 28 29 30 29 28 27
48 44 41 45 44 41 44 48 47 45 44 43 39 36 35 38 43 46 45 45 44 43 42 41 42 42 43 43 42 43 47 48 50 53 55 54 53 52 54 54 54 54 52 46 40 38 38 34 33 35 31 24 21 21 19 19 21 21 21 22 22 21 21 20 17 16 18 18 18 18 17 17 18 18 20 22 24 24 24 25 27 28 29 28 27 24
48 43 37 39 40 39 40 42 42 43 42 42 42 40 38 39 41 43 45 47 45 42 42 43 42 40 38 38 38 40 45 48 50 52 54 54 53 52 53 53 54 55 51 45 41 40 38 34 33 33 29 23 22 22 20 20 21 22 22 23 24 22 20 18 17 18 20 20 20 20 19 19 18 19 20 21 21 21 21 22 24 26 26 26 25 23
43 42 39 36 35 38 39 37 40 42 41 41 42 41 39 41 44 44 45 47 45 43 44 43 41 39 38 37 39 40 44 48 51 53 55 55 53 53 53 53 55 54 49 44 41 39 37 35 34 31 26 22 23 22 21 20 20 22 23 23 25 24 21 18 18 20 21 21 23 24 21 19 19 19 19 19 20 20 20 21 23 24 24 23 22 22
38 39 41 38 35 39 42 38 38 41 42 42 42 42 39 40 44 44 44 46 45 45 46 44 40 40 40 39 40 42 46 50 53 54 54 54 53 52 53 55 56 53 48 42 39 38 36 35 35 30 23 21 22 22 21 20 20 22 23 24 25 25 21 18 18 20 21 23 26 25 22 20 20 19 19 19 19 20 21 21 22 22 21 22 23 24
41 39 40 39 39 44 47 43 40 42 43 42 43 42 40 40 43 44 45 48 48 48 49 46 42 41 40 39 41 43 46 49 52 54 54 54 53 53 55 56 56 53 47 41 38 38 37 36 34 29 23 22 22 22 22 21 21 22 23 24 26 24 21 19 19 19 21 26 28 27 23 21 20 19 18 19 19 20 21 21 21 21 21 23 24 25
46 42 41 42 42 46 50 49 47 48 45 43 45 43 40 40 42 42 43 46 47 47 48 45 41 41 39 37 40 43 45 46 48 52 54 55 54 55 57 57 56 53 47 41 39 39 37 36 32 27 24 23 22 21 21 21 22 22 23 25 26 23 20 20 20 20 23 27 29 27 24 22 20 19 18 19 20 20 20 21 22 23 23 24 25 24
48 46 46 46 42 44 51 51 49 49 46 47 51 48 43 41 41 42 43 43 43 45 45 44 42 41 37 36 38 40 41 42 44 48 52 54 54 56 58 57 54 51 46 43 41 40 38 36 31 25 24 24 22 21 21 21 22 22 23 24 24 22 20 21 21 21 24 27 27 26 24 22 21 20 19 20 20 21 22 22 23 24 24 24 24 23
50 48 48 47 42 45 53 52 49 49 49 51 54 51 45 42 42 43 42 41 42 44 45 44 41 38 36 35 37 38 39 41 43 46 49 51 53 56 58 55 50 46 45 44 43 41 39 37 31 23 22 23 22 21 21 21 21 22 24 24 22 20 21 23 22 22 24 26 25 24 24 23 22 21 21 21 21 21 22 23 24 25 25 24 24 23
50 49 47 46 44 45 49 48 47 48 47 49 49 45 40 39 39 40 38 38 40 41 40 40 39 38 37 37 38 40 41 42 45 47 48 50 52 55 56 54 49 45 46 46 44 43 40 37 29 22 20 22 23 21 21 21 21 22 24 23 20 20 22 23 22 23 25 26 25 24 24 23 23 22 22 22 22 22 22 22 24 24 24 23 23 22
48 47 45 43 45 47 48 48 49 46 44 46 45 39 34 34 36 38 37 38 40 38 35 36 39 40 39 38 40 41 42 45 48 49 50 51 54 54 54 51 48 46 47 47 45 44 41 36 29 22 20 22 23 22 21 21 21 22 23 21 19 20 22 24 23 24 26 27 24 23 24 24 23 22 22 22 22 22 22 22 23 23 23 22 21 21
47 46 44 43 46 49 48 46 45 42 43 49 48 42 37 34 35 37 36 36 37 34 31 34 39 40 40 41 42 42 44 48 51 51 50 53 54 53 50 48 45 45 47 47 46 46 41 36 30 23 20 22 23 22 22 21 20 22 20 18 18 19 21 24 25 25 26 27 25 24 25 25 24 23 23 23 23 23 22 22 22 22 22 22 21 21
48 49 50 48 48 49 47 46 44 41 43 49 49 45 40 35 33 35 35 35 34 30 29 34 39 40 40 40 41 42 44 48 50 49 49 50 49 47 46 45 45 45 47 46 46 45 40 35 30 23 19 21 22 22 22 21 20 20 17 16 18 19 20 24 25 25 25 26 25 25 26 25 24 23 23 23 23 23 22 21 22 22 21 21 20 20
49 50 51 49 49 50 49 49 48 44 41 44 46 43 37 33 32 34 36 37 34 30 31 36 40 41 39 37 38 39 39 42 43 43 44 45 44 44 44 44 45 45 46 45 45 43 39 36 31 23 19 20 21 20 21 20 19 17 15 15 18 19 20 22 24 25 26 26 25 26 27 26 24 23 23 23 23 23 22 20 20 20 20 20 20 20
49 50 51 51 51 52 50 48 48 47 44 44 44 40 34 31 33 36 38 37 32 30 32 35 38 41 37 34 35 35 35 38 39 39 40 42 42 43 44 44 45 46 46 45 44 41 38 35 29 21 17 18 18 19 20 19 17 15 13 16 18 20 21 23 24 26 28 27 26 27 28 27 25 23 23 24 23 22 21 19 19 19 19 18 19 19
49 48 50 51 51 53 53 49 48 48 45 42 41 39 34 33 37 40 38 34 30 30 33 35 38 40 35 31 33 35 37 40 41 40 40 41 42 43 44 44 44 45 44 43 42 40 37 34 27 20 16 16 17 18 18 18 16 14 14 16 18 20 22 24 25 28 30 30 29 30 31 30 28 26 24 24 23 22 21 19 18 18 18 18 18 18
48 47 51 54 54 53 51 49 47 48 46 40 39 40 39 39 41 40 36 33 31 32 34 36 38 38 33 30 32 36 39 41 41 40 41 43 44 45 45 45 45 44 43 42 42 40 37 33 26 19 16 16 17 17 17 16 15 14 14 16 18 20 22 23 25 28 31 32 33 34 34 34 33 31 28 26 24 22 21 20 19 19 18 18 18 18
48 47 51 56 57 53 50 50 48 46 44 41 40 42 43 42 41 38 34 34 34 33 34 35 37 37 33 29 30 34 36 38 38 39 40 43 44 44 44 45 45 44 43 43 43 41 37 33 26 19 16 16 17 16 15 15 14 15 15 15 17 19 21 23 25 29 32 34 35 35 36 37 37 36 33 29 25 24 22 21 19 19 19 18 18 18
49 48 50 53 56 55 53 53 48 43 41 40 40 42 42 41 39 37 34 34 35 35 36 36 36 35 31 28 29 32 33 35 37 38 39 42 44 45 45 44 44 45 43 42 42 40 36 32 25 18 16 17 17 16 16 15 15 15 15 15 16 19 22 24 26 29 33 35 35 36 37 38 39 39 37 33 28 25 24 22 20 20 20 19 18 18
49 50 50 52 54 52 50 50 47 44 44 43 41 41 41 39 38 36 33 33 34 35 35 34 33 32 30 27 28 31 32 35 38 39 41 44 45 46 46 45 45 44 43 41 40 37 34 30 23 17 15 17 18 17 16 15 15 16 16 16 16 18 22 25 27 30 33 35 35 36 37 39 39 40 39 36 31 28 27 25 23 21 21 20 20 19
50 50 51 52 52 51 51 52 49 46 46 45 43 43 42 40 38 36 35 35 34 34 34 33 32 31 29 27 27 29 31 35 38 42 44 45 46 46 46 46 46 45 42 41 38 34 32 28 22 17 15 17 17 17 16 15 16 16 16 16 17 19 22 25 27 30 33 34 35 37 38 39 41 41 40 38 34 31 30 29 26 23 22 22 21 20
51 50 51 52 52 54 55 54 51 48 48 47 46 46 44 41 40 38 36 36 34 33 33 32 31 31 30 28 27 28 31 34 38 42 44 44 45 45 45 45 45 44 41 39 35 32 31 28 22 17 16 16 17 16 16 16 16 17 17 17 18 21 23 25 27 31 33 34 36 37 38 40 41 41 41 40 37 34 33 32 30 27 25 24 23 22
52 51 53 55 57 58 56 53 52 52 51 49 49 49 47 43 40 39 37 36 34 33 34 34 33 33 32 29 27 26 29 33 36 39 42 43 43 43 42 41 41 40 38 35 32 30 29 26 21 17 16 16 16 16 16 17 17 17 18 17 19 22 24 24 27 32 34 36 38 38 38 39 41 41 41 40 38 36 35 34 33 31 28 26 24 23
55 56 58 59 61 61 58 55 54 54 53 51 50 51 50 46 42 41 39 37 35 34 36 37 37 36 35 32 29 26 26 31 34 36 38 40 40 39 37 36 36 36 35 33 31 29 28 26 22 18 16 17 17 17 18 18 18 19 19 19 20 22 24 25 27 32 36 37 38 39 39 39 40 40 40 40 39 37 36 37 36 34 31 28 26 25
57 58 61 61 62 61 58 56 53 52 53 54 52 52 51 48 45 44 41 38 36 35 36 37 38 39 39 37 33 28 26 28 31 33 35 37 37 35 34 34 34 34 33 32 30 29 29 27 22 18 17 17 17 18 19 19 19 20 20 20 22 25 28 29 29 32 37 39 39 39 40 39 39 39 39 39 39 37 37 39 39 36 33 30 27 25